Location: Pitton
(51.0667°N, 1.7000°W)
Time: 21:03:52
(UTC+00:00)

Cosmos 2237 Rocket - Pass Details

Date: 17 September 2019
Orbit: 833 x 851 km, 71.0° (Epoch: 13 October)

Event Time Altitude Azimuth Distance (km) Brightness Sun altitude
Rises 21:39:12 0° 319° (NW) 3,426 6.6 -28.9°
Reaches altitude 10° 21:42:29 10° 300° (WNW) 2,487 5.5 -29.2°
Maximum altitude 21:46:01 17° 262° (W) 2,024 4.5 -29.6°
Enters shadow 21:48:32 13° 232° (SW) 2,264 4.4 -29.8°
